Location: Unspecified
(50.7693°N, 0.0000°E)
Time: 04:47:35
(UTC+00:00)

A-11 Canister half - Pass Details

Date: 29 June 2019
Orbit: 1526 x 1683 km, 47.3° (Epoch: 21 July)

Event Time Altitude Azimuth Distance (km) Brightness Sun altitude
Exits shadow 02:21:10 12° 208° (SSW) 3,655 10.3 -10.0°
Maximum altitude 02:29:19 40° 145° (SE) 2,165 9.6 -9.3°
Drops below altitude 10° 02:37:45 10° 80° (E) 3,711 11.7 -8.5°
Sets 02:41:00 0° 74° (ENE) 4,687 12.5 -8.2°
